CAPE
4 0 0 1 0 0 0 0 0 1 5 1 5 2 17 0 0 7 3 0 0 2 0 2 1 0 0 0 0 0 0 0 0 0 0 0 0 0 0 0 0 0 0 0
1 0 0 0 0 0 0 0 0 1 1 0 0 2 1 10 9 21 4 0 0 0 0 2 0 0 0 0 0 2 0 0 0 0 0 0 0 0 0 0 0 0 0 0
2 2 1 0 0 0 0 0 0 1 2 0 0 0 2 1 1 5 25 12 26 15 10 0 0 0 0 0 0 0 0 0 0 0 0 0 0 0 0 0 0 0 0 0
2 1 1 1 0 0 0 0 0 0 0 0 0 0 0 0 5 4 0 32 15 11 1 0 0 0 0 0 0 0 0 0 0 0 0 0 0 0 0 0 0 0 0 0
1 1 1 1 0 0 0 0 0 0 0 0 0 0 0 0 0 0 0 0 0 0 0 0 0 0 0 0 0 0 0 0 0 0 0 0 0 0 0 0 0 0 0 0
1 1 1 1 0 0 0 0 0 0 0 0 0 0 0 0 0 0 0 0 0 0 0 0 0 0 0 0 0 0 0 0 0 0 0 0 0 0 0 0 0 0 0 0
1 1 1 1 0 0 0 0 0 0 0 0 0 0 0 0 0 0 0 0 0 0 0 0 0 0 0 0 0 0 0 0 0 0 0 0 0 0 0 0 0 0 0 0
1 1 1 1 1 0 0 0 0 0 0 0 0 0 0 0 0 0 0 0 0 0 0 0 0 0 0 0 0 0 0 0 0 0 0 0 0 0 0 0 0 0 0 0
1 1 1 1 1 0 0 0 0 0 0 0 0 0 0 0 0 0 0 0 0 0 0 0 0 0 0 0 0 0 0 0 0 0 0 0 0 0 0 0 0 0 0 0
2 1 0 0 1 0 0 0 0 0 0 0 0 0 0 0 0 0 0 0 0 0 0 0 0 0 0 0 0 0 0 0 0 0 0 0 0 0 0 0 0 0 0 0
1 1 0 0 0 0 0 0 0 0 0 0 0 0 0 0 0 0 0 0 0 0 0 0 0 0 0 0 0 0 0 0 0 0 0 0 0 0 0 0 0 0 0 0
1 1 1 0 1 0 0 0 0 0 0 0 0 0 0 0 0 0 0 0 0 0 0 0 0 0 0 0 0 0 0 0 0 0 0 0 0 0 0 0 0 0 0 0
1 1 2 0 1 0 0 0 0 0 0 0 0 0 0 0 0 0 0 0 0 0 0 0 0 0 0 0 0 0 0 0 0 0 0 0 0 0 0 0 0 0 0 0
1 2 2 1 0 0 0 0 0 0 0 0 0 0 0 0 0 0 0 0 0 0 0 0 0 0 0 0 0 0 0 0 0 0 0 0 0 0 0 0 0 0 0 0
0 1 1 2 0 0 0 0 0 0 0 0 0 0 0 0 0 0 0 0 0 0 0 0 0 0 0 0 0 0 0 0 0 0 0 0 0 0 0 0 0 0 0 0
0 1 2 0 0 0 0 0 0 0 0 0 0 0 0 0 0 0 0 0 0 0 0 0 0 0 0 0 0 0 0 0 0 0 0 0 0 0 0 0 0 0 0 0
0 2 3 4 1 0 0 0 0 0 0 0 0 0 0 0 0 0 0 0 0 0 0 0 0 0 0 0 0 0 0 0 0 0 0 0 0 0 0 0 0 0 0 0
2 4 5 0 0 0 0 0 0 0 0 0 0 0 0 0 0 0 0 0 0 0 0 0 0 0 0 0 0 0 0 0 0 0 0 0 0 0 0 0 0 0 0 0
4 5 2 0 0 0 0 0 0 0 0 0 0 0 0 0 0 0 0 0 0 1 0 0 0 0 0 0 0 0 0 0 0 0 0 0 0 0 0 0 0 0 0 0
4 0 0 0 0 0 0 1 9 0 0 0 0 0 0 1 1 0 0 0 0 0 0 0 0 0 0 0 0 0 0 0 0 0 0 0 0 0 0 0 0 0 0 0
4 0 0 1 0 0 0 0 1 0 0 0 0 0 0 0 0 0 0 0 0 0 0 0 0 0 0 0 0 0 0 0 0 0 0 0 0 0 0 0 0 0 0 0
0 0 0 0 0 0 0 0 0 0 0 0 0 0 0 0 0 0 0 0 0 0 0 0 0 0 0 0 0 0 0 0 0 0 0 0 0 0 0 0 0 0 0 0
0 0 0 0 0 0 0 0 0 0 0 0 0 0 0 0 0 0 0 1 0 0 1 0 0 0 0 0 0 0 0 0 0 0 0 0 0 0 0 0 0 0 0 0
1 0 0 0 0 0 0 0 0 0 0 0 0 0 0 0 0 1 2 0 0 3 0 0 0 0 0 0 0 0 0 0 0 0 0 0 0 0 0 0 0 0 0 0
0 0 0 0 0 0 0 0 0 0 0 0 0 0 0 0 0 0 0 0 0 0 0 0 0 0 0 0 0 0 0 0 0 0 0 0 0 0 0 0 0 0 0 0
0 0 0 0 0 0 0 0 0 0 0 0 0 0 0 0 0 0 0 0 0 0 0 0 0 0 0 0 0 0 0 0 0 0 0 0 0 0 0 0 0 0 0 0
0 0 0 0 0 0 0 0 0 0 0 0 0 0 0 0 0 0 0 0 0 0 0 0 0 0 0 0 0 0 0 0 0 0 0 0 0 0 0 0 0 0 0 0
CIN
-11 0 0 0 0 0 0 0 0 0 0 0 -1 -3 0 0 0 -23 -15 -2 0 0 0 0 0 0 0 0 0 0 0 0 0 0 0 0 0 0 0 0 0 0 0 0
-3 -1 0 0 0 0 0 0 0 0 0 0 0 -2 -1 -3 0 -4 -2 0 0 0 0 -1 -2 0 0 0 0 -21 0 0 0 0 0 0 0 0 0 0 0 0 0 0
-5 -1 0 0 0 0 0 0 0 0 0 0 0 0 -1 0 -5 -10 -7 -6 -11 -3 -11 0 0 0 0 0 0 -47 0 0 0 0 0 0 0 0 0 0 0 0 0 0
-4 -1 0 0 0 0 0 0 0 0 0 0 0 0 0 0 -1 -16 -9 -8 -15 -11 -22 0 0 0 0 0 0 0 0 0 0 0 0 0 0 0 0 0 0 0 0 0
-3 0 0 0 0 0 0 0 0 0 0 0 0 0 0 0 0 0 -9 -4 0 0 0 0 0 0 -1 0 0 0 0 0 0 0 0 0 0 0 0 0 0 0 0 0
-3 -1 0 0 0 0 0 0 0 0 0 0 0 0 0 0 0 0 0 0 0 0 0 0 0 0 0 0 0 0 0 0 0 0 0 0 0 0 0 0 0 0 0 0
-3 -1 -1 0 0 0 0 0 0 0 0 0 0 0 0 0 0 0 0 0 0 0 0 0 0 0 0 0 0 0 0 0 0 0 0 0 0 0 0 0 0 0 0 0
-4 -2 -3 0 0 0 0 0 0 0 0 0 0 0 0 0 0 0 0 0 0 0 0 0 0 0 0 0 0 0 0 0 0 0 0 0 0 0 0 0 0 0 0 0
-2 -4 -5 -1 0 0 0 0 0 0 0 0 0 0 0 0 0 0 0 0 0 0 0 0 0 0 0 0 0 0 0 0 0 0 0 0 0 0 0 0 0 0 0 0
-4 -4 -6 -1 -1 0 0 0 0 0 0 0 0 0 0 0 0 0 0 0 0 0 0 0 0 0 0 0 0 0 0 0 0 0 0 0 0 0 0 0 0 0 0 0
-2 -4 0 0 -2 0 0 0 0 0 0 0 0 0 0 0 0 0 0 0 0 0 0 0 0 0 0 0 0 0 0 0 0 0 0 0 0 0 0 0 0 0 0 0
-2 -3 -4 0 0 0 0 0 0 0 0 0 0 0 0 0 0 0 0 0 0 0 0 0 0 0 0 0 0 0 0 0 0 0 0 0 0 0 0 0 0 0 0 0
-1 -1 -4 -1 0 0 0 0 0 0 0 0 0 0 0 0 0 0 0 0 0 0 0 0 0 0 0 0 0 0 0 0 0 0 0 0 0 0 0 0 0 0 0 0
-2 -2 -3 -4 0 0 0 0 0 0 0 0 0 0 0 0 0 0 0 0 0 0 0 0 0 0 0 0 0 0 0 0 0 0 0 0 0 0 0 0 0 0 0 0
-1 0 -1 -4 0 0 0 0 0 0 0 0 0 0 0 0 0 0 0 0 0 0 0 0 0 0 0 0 0 0 0 0 0 0 0 0 0 0 0 0 0 0 0 0
0 0 0 -3 0 0 0 0 0 0 0 0 0 0 0 0 0 0 0 0 0 0 0 0 0 0 0 0 0 0 0 0 0 0 0 0 0 0 0 0 0 0 0 0
0 -8 -7 -5 -2 0 0 0 0 0 0 0 0 0 0 0 0 0 0 0 0 0 0 0 0 0 0 0 0 0 0 0 0 0 0 0 0 0 0 0 0 0 0 0
-7 -7 -13 -9 0 0 0 0 0 0 0 0 0 0 0 0 0 0 0 0 0 0 0 0 0 0 0 0 0 0 0 0 0 0 0 0 0 0 0 0 0 0 0 0
-8 -14 -19 0 0 -17 0 0 0 0 0 0 0 0 0 -2 0 0 0 0 0 0 0 0 0 0 0 0 0 0 0 0 0 0 0 0 0 0 0 0 0 0 0 0
-10 -9 0 0 0 0 0 -32 -9 -10 0 0 0 0 0 -1 -1 0 0 0 0 0 0 0 0 0 0 0 0 0 0 0 0 0 0 0 0 0 0 0 0 0 0 0
-7 0 0 0 0 0 0 0 -7 -4 0 0 0 0 0 0 0 0 0 0 0 0 0 0 0 0 0 0 0 0 0 0 0 0 0 0 0 0 0 0 0 0 0 0
-4 0 0 0 0 0 0 0 0 0 0 0 0 0 0 0 0 0 0 0 0 0 0 -4 0 0 0 0 0 0 0 0 0 0 0 0 0 0 0 0 0 0 0 0
0 0 0 0 0 0 0 0 0 0 0 0 0 0 0 0 0 0 0 -1 0 0 0 0 0 0 0 0 0 0 0 0 0 0 0 0 0 0 0 0 0 0 0 0
0 0 0 0 0 0 0 0 0 0 0 -1 -5 0 0 0 0 0 0 0 0 0 0 0 0 0 0 0 0 0 0 0 0 0 0 0 0 0 0 0 0 0 0 0
0 0 0 0 0 0 0 0 0 0 0 0 0 0 0 0 0 0 0 0 0 0 0 0 0 0 0 0 0 0 0 0 0 0 0 0 0 0 0 0 0 0 0 0
0 0 0 0 0 0 0 0 0 0 0 0 0 0 0 0 0 0 0 0 0 0 0 0 0 0 0 0 0 0 0 0 0 0 0 0 0 0 0 0 0 0 0 0
0 0 0 0 0 0 0 0 0 0 0 0 0 0 0 0 0 0 0 0 0 0 0 0 0 0 0 0 0 0 0 0 0 0 0 0 0 0 0 0 0 0 0 0
Wind_Speed
30 27 26 27 26 23 18 17 18 16 23 14 15 17 15 30 30 21 23 22 19 25 24 22 22 27 21 23 21 22 19 21 28 29 20 22 24 26 23 27 26 22 20 23
29 27 25 27 24 20 18 17 16 12 19 14 15 15 23 25 20 23 28 28 26 26 24 18 18 18 17 19 18 14 16 20 24 27 26 23 27 24 22 22 20 20 20 23
28 27 23 26 23 19 17 18 17 15 23 18 19 21 17 19 21 21 22 31 29 30 28 22 23 21 19 21 22 19 19 16 21 26 26 21 25 25 24 23 24 24 25 25
27 26 22 24 23 22 16 19 18 15 19 21 15 14 18 20 24 22 18 24 29 33 25 25 27 23 22 23 23 21 21 22 21 21 20 21 26 26 23 26 24 25 26 24
27 26 22 23 23 19 17 19 18 15 16 16 13 12 17 16 19 26 25 28 28 26 24 17 22 19 23 24 20 19 17 20 18 18 17 20 23 25 25 25 28 29 28 30
26 25 21 21 22 18 18 16 18 16 19 19 18 17 19 20 14 19 24 16 18 24 22 12 8 10 10 11 12 15 18 12 14 22 19 21 28 25 21 24 23 23 28 23
24 25 21 20 20 18 18 16 17 17 20 20 20 16 14 18 18 14 25 25 22 22 18 13 9 5 7 8 12 15 14 14 16 19 16 28 20 21 20 19 20 19 17 16
23 24 21 18 20 18 17 16 16 18 17 18 14 9 7 8 8 10 12 18 20 21 17 18 17 21 20 19 16 18 17 15 20 23 27 26 21 19 17 17 18 15 14 16
20 22 20 18 19 18 17 16 15 17 14 18 12 10 15 7 10 12 13 11 17 16 14 14 13 14 14 18 18 16 14 14 18 18 25 29 18 17 16 16 22 16 14 16
18 19 20 18 18 18 16 17 16 16 17 17 18 15 16 15 12 11 11 11 14 17 13 14 14 15 14 14 15 17 20 22 23 22 25 26 19 14 13 20 19 11 13 16
18 16 19 18 17 18 17 16 16 18 19 18 17 17 17 16 15 14 13 10 17 14 15 14 15 17 16 16 15 17 17 17 21 20 23 27 14 12 17 11 10 12 16 21
17 15 18 19 18 16 17 16 15 14 17 18 16 14 15 15 16 14 15 15 11 12 13 15 13 15 14 15 20 16 19 15 17 14 17 13 13 10 9 11 13 18 23 24
16 15 16 17 18 16 16 16 16 14 16 17 18 19 17 16 17 17 18 18 14 15 14 12 14 16 13 17 20 19 17 11 15 14 13 12 11 12 15 17 19 22 24 25
15 14 14 15 15 15 15 15 18 15 15 21 21 18 19 21 20 19 18 14 14 13 15 17 17 19 16 18 20 20 17 12 13 17 14 15 14 17 18 19 23 25 25 26
14 13 12 13 13 12 11 12 14 16 17 18 20 16 19 20 18 15 13 12 13 17 19 20 21 18 19 22 23 24 17 16 15 18 13 17 16 17 20 21 23 25 27 29
13 12 10 11 11 13 16 18 17 16 15 15 18 19 20 18 14 13 15 16 17 19 20 21 20 18 20 22 24 21 17 17 18 19 15 18 16 17 20 23 25 27 29 29
11 10 9 9 10 14 17 19 18 19 17 17 19 21 19 18 17 18 18 18 19 20 21 22 20 20 20 23 26 21 18 13 14 13 12 16 17 21 22 23 24 26 29 30
10 8 6 7 4 8 15 16 15 16 15 17 19 20 18 18 19 19 18 17 17 18 19 19 22 19 22 27 24 19 14 12 13 14 17 18 20 23 24 24 27 31 32 31
9 6 5 11 15 16 14 13 13 12 14 17 18 18 20 16 17 17 17 18 20 19 21 21 20 22 21 20 17 14 12 15 14 16 19 23 25 25 26 29 30 32 31 28
10 12 17 18 16 10 11 15 16 17 20 18 19 16 18 15 17 17 17 18 19 21 21 17 23 25 21 17 15 15 12 12 15 23 25 24 25 27 28 29 28 27 26 25
18 19 18 13 10 13 16 19 20 20 23 20 18 17 15 16 16 16 17 17 18 22 21 19 22 23 20 20 18 18 16 17 19 18 19 21 24 27 28 28 26 24 23 23
17 12 10 12 16 19 22 22 21 21 22 17 14 13 12 13 13 15 16 19 18 23 15 20 25 20 14 13 11 10 10 10 13 16 19 22 25 27 28 28 26 24 23 22
15 16 19 20 21 24 24 26 25 23 15 13 11 9 11 12 13 16 17 20 21 14 21 25 23 17 13 9 9 10 12 13 15 18 21 24 26 27 27 28 25 24 22 20
22 22 26 28 27 29 26 24 22 19 14 10 9 11 14 13 14 15 18 18 16 22 26 25 18 12 8 7 9 11 13 15 17 20 24 27 28 29 27 25 24 23 22 20
24 24 30 31 27 25 24 20 19 17 7 8 10 14 16 14 15 16 15 17 21 21 22 17 8 4 4 7 11 15 19 21 23 24 25 27 27 27 28 25 23 21 21 20
24 26 26 25 26 26 24 22 19 13 8 8 14 16 17 18 16 15 16 18 22 19 11 5 4 4 8 15 20 22 23 24 25 25 25 27 28 28 28 26 24 22 21 22
27 28 27 25 24 25 23 22 20 14 14 16 18 19 20 14 20 20 17 18 14 9 7 8 7 10 15 19 22 24 24 24 24 25 26 27 28 27 27 28 25 22 21 22
Wind_Direction
293 322 334 338 334 292 336 245 282 103 119 154 149 140 150 136 141 205 210 202 193 198 198 210 222 212 224 221 215 229 236 238 230 236 256 256 255 253 257 261 271 286 298 298
293 305 329 316 337 309 312 274 307 123 171 207 178 169 127 159 166 167 165 193 199 194 201 216 220 211 223 217 222 232 231 247 234 240 250 256 251 254 261 268 280 285 291 292
288 294 325 299 318 298 307 266 288 270 202 210 191 140 165 180 180 179 180 178 189 188 194 214 203 209 220 217 219 231 232 252 248 243 251 253 251 253 257 263 272 277 279 290
285 287 316 285 302 275 305 260 266 269 226 200 225 218 177 187 179 183 196 184 186 182 191 193 197 206 206 213 221 231 236 241 248 250 253 253 256 255 254 260 270 275 284 287
284 284 305 285 290 291 282 258 264 267 238 230 242 234 201 194 200 187 183 191 189 197 206 220 212 211 214 220 230 238 253 249 253 256 261 260 261 258 259 264 267 271 280 285
282 280 298 295 289 289 270 281 256 247 231 226 230 229 201 196 201 213 195 183 194 200 210 229 232 241 245 250 245 249 255 267 263 253 261 262 258 264 267 267 275 280 281 296
284 274 290 293 287 285 264 273 257 247 233 227 224 233 240 208 210 217 202 201 207 199 200 207 224 258 261 262 256 257 256 261 263 265 276 259 274 275 279 281 288 289 300 310
285 273 286 292 279 283 266 267 258 249 247 243 254 256 253 248 257 219 219 222 217 210 219 225 237 237 237 243 263 264 269 271 265 264 262 271 278 284 286 286 293 305 308 314
285 276 282 288 277 279 268 266 269 260 263 248 256 256 234 248 233 234 236 237 215 222 230 234 239 241 245 248 257 271 280 283 276 281 274 272 289 288 295 299 287 307 318 320
282 281 278 284 278 273 272 264 270 266 259 249 239 248 237 236 242 249 245 241 236 237 252 255 260 261 263 269 268 270 268 271 271 276 278 281 287 306 314 288 300 325 330 332
276 283 274 279 277 269 268 267 272 263 257 253 252 250 246 246 248 244 245 254 250 258 262 271 275 272 271 280 287 288 284 282 278 279 280 279 307 309 294 319 338 337 332 328
273 279 273 271 273 272 267 267 270 275 265 259 264 265 266 264 261 261 249 269 270 271 271 275 286 287 291 289 286 302 296 303 297 295 298 321 321 331 339 335 331 325 324 327
268 275 272 269 271 272 268 264 266 274 264 262 260 261 271 274 271 270 261 266 276 279 285 287 294 292 309 294 296 301 310 323 305 306 309 312 321 325 323 322 323 323 324 325
264 271 272 270 269 271 270 267 265 270 271 259 263 272 269 276 276 277 275 279 283 287 289 287 290 292 305 307 305 303 309 314 303 301 307 310 311 312 317 320 321 322 325 327
260 267 271 268 266 273 275 275 275 273 268 270 264 276 280 279 276 284 288 284 287 285 284 286 288 299 302 306 306 299 301 296 292 299 310 308 309 315 319 321 324 326 327 327
254 261 267 268 261 260 265 263 272 279 277 276 271 277 276 283 283 286 286 286 286 284 285 286 293 299 301 303 303 310 304 301 297 294 304 312 319 325 327 326 328 330 330 330
244 253 260 268 263 264 261 266 271 267 277 275 271 274 279 276 281 281 284 287 285 286 285 284 288 293 298 294 290 299 308 306 313 320 322 320 324 323 329 330 330 331 330 330
233 241 251 266 272 277 272 284 282 275 269 273 273 276 279 281 276 276 286 285 289 290 287 287 284 292 293 291 293 296 303 310 316 319 324 325 326 326 326 329 328 327 327 329
217 209 233 266 268 265 272 282 284 291 278 270 274 273 275 284 282 282 284 288 282 293 284 284 289 288 290 296 300 301 302 309 314 320 321 322 322 324 324 325 326 326 328 330
199 237 257 257 260 268 275 283 277 276 276 281 276 278 280 282 281 285 286 290 284 286 288 296 290 287 286 293 304 310 308 313 321 316 315 320 322 324 326 326 327 328 329 330
235 247 257 259 265 271 277 271 269 272 272 276 277 276 278 288 281 281 289 289 291 286 289 288 295 295 298 300 293 295 293 302 313 324 329 330 329 327 327 328 328 328 329 329
236 246 254 257 270 269 265 261 270 271 270 279 275 273 282 289 295 291 291 288 290 287 300 292 293 300 308 319 325 332 337 337 334 335 333 331 330 330 328 328 328 328 328 330
231 252 251 258 261 258 259 255 263 266 277 272 269 268 286 292 299 297 296 288 287 304 292 292 296 306 309 314 328 334 338 337 334 331 332 331 330 330 330 328 329 329 328 328
243 246 244 249 255 258 261 262 268 271 271 247 243 270 288 295 290 300 292 294 299 290 290 293 302 299 312 326 334 337 332 330 327 327 328 328 329 329 330 330 330 328 326 326
246 248 249 251 259 266 264 265 265 267 252 232 253 278 291 284 294 295 299 294 291 294 295 306 315 335 356 345 337 330 327 326 325 325 326 328 329 329 328 328 328 326 325 324
251 251 254 258 257 260 260 259 258 258 236 249 277 281 285 284 289 292 289 289 292 304 314 339 7 354 336 330 326 325 325 325 325 325 325 325 326 327 327 328 326 324 323 322
252 253 254 256 263 258 259 258 254 245 227 252 278 277 280 292 285 283 287 293 304 317 316 310 315 321 320 321 323 323 323 323 323 324 324 324 326 328 327 325 325 324 323 323